Regional Weather Roundup
Issued by NWS

Home | Current Version | Previous Version | Graphics & Text | Print | Product List | Glossary On
Versions: 1 2 3 4 5 6 7 8 9 10 11 12 13 14 15 16 17 18 19 20 21 22 23 24 25 26 27 28 29 30 31 32 33 34 35 36 37 38 39 40 41 42 43 44 45 46 47 48 49 50
000
ASUS43 KLSX 190359
RWRMO

WEATHER SUMMARY FOR MISSOURI
NATIONAL WEATHER SERVICE SPRINGFIELD MO
1100 PM CDT THU SEP 18 2014

NOTE: "FAIR" INDICATES FEW OR NO CLOUDS BELOW 12,000 FEET WITH NO
       SIGNIFICANT WEATHER AND/OR OBSTRUCTIONS TO VISIBILITY.
       CURRENT SKY AND/OR WEATHER CONDITIONS ARE NOT AVAILABLE FOR
       CHILLICOTHE AND FARMINGTON.

MOZ001>031-035>038-043-044-053-054-190500-
...NORTHERN AND WESTERN MISSOURI...

CITY           SKY/WX    TMP DP  RH WIND       PRES   REMARKS
KANSAS CTY INT CLEAR     62  60  93 SE9       30.02S
KANSAS C DTWN  CLEAR     64  61  90 E5        30.01S
LEE`S SUMMIT   CLEAR     62  61  96 E6        30.03S
ST JOSEPH      CLEAR     59  58  96 SE6       30.02S
KIRKSVILLE     CLEAR     57  53  86 E5        30.07S

$$
MOZ066>068-077>081-088>096-101>105-190500-
...SOUTHWEST MISSOURI...

CITY           SKY/WX    TMP DP  RH WIND       PRES   REMARKS
SPRINGFIELD    PTCLDY    64  60  87 SE9       30.04S
JOPLIN         CLEAR     65  63  93 E8        30.01S

$$
MOZ032>034-039>042-045>050-055>058-069>072-190500-
...CENTRAL MISSOURI...

CITY           SKY/WX    TMP DP  RH WIND       PRES   REMARKS
COLUMBIA       CLOUDY    61  58  90 CALM        N/A
JEFFERSON CITY PTCLDY    63  59  87 E3        30.06R
ROLLA          FOG       62  60  93 SE6       30.06S VSB 1
SEDALIA        FOG       61  59  93 CALM      30.06R VSB 1/4
OSAGE BEACH    CLEAR     61  57  88 CALM      30.05S

$$
MOZ051-052-059>065-190500-
...EAST CENTRAL MISSOURI...

CITY           SKY/WX    TMP DP  RH WIND       PRES   REMARKS
ST LOUIS INTL  PTCLDY    62  54  74 E6        30.08R
SPIRIT OF STL  CLEAR     56  55  97 CALM      30.06S
ST CHARLES     CLEAR     57  54  89 CALM      30.07R

$$
MOZ072>076-082>087-097>100-106>115-190500-
...SOUTH CENTRAL AND SOUTHEAST MISSOURI...

CITY           SKY/WX    TMP DP  RH WIND       PRES   REMARKS
CAPE GIRARDEAU CLEAR     60  59  96 E3        30.05S
FARMINGTON     CLOUDY    63  59  88 E7        30.09S
POPLAR BLUFF   CLEAR     61  57  87 CALM      30.03R
WEST PLAINS    PTCLDY    59  58  96 NE3       30.07S FOG

$$



USA.gov is the U.S. government's official web portal to all federal, state and local government web resources and services.